Regional Weather Roundup
Issued by NWS Sterling, VA

Home | Current Version | Previous Version | Graphics & Text | Print | Product List | Glossary On
Versions: 1 2 3 4 5 6 7 8 9 10 11 12 13 14 15 16 17 18 19 20 21 22 23 24 25 26 27 28 29 30 31 32 33 34 35 36 37 38 39 40 41 42 43 44 45 46 47 48
645
ASUS41 KLWX 290611
RWRLWX

REGIONAL WEATHER ROUNDUP
NATIONAL WEATHER SERVICE BALTIMORE MD/WASHINGTON DC
200 AM EDT SAT JUL 29 2017

Note: "FAIR" indicates few or no clouds below 12,000 feet
with no significant weather and/or obstructions to visibility.
 TC=TEMPERATURE CELSIUS

 * =Non NWS site. Station does not report precipitation (e.g. rain,
    snow, etc.), thunder, or fog.

DCZ001-MDZ009-015-VAZ040>042-051-053>054-290700-
WASHINGTON METRO

CITY           SKY/WX    TMP DP  RH WIND       PRES   REMARKS
WASHINGTON NAT LGT RAIN  71  70  96 NE14      29.66F
DULLES         LGT RAIN  68  65  90 NE16G23   29.68S
ANDREWS AFB    HVY RAIN  68  68 100 NE17G24   29.63F FOG
FT BELVOIR     RAIN      70  68  94 N5        29.64F FOG
QUANTICO       LGT RAIN  73  72  96 N14       29.65R
COLLEGE PARK*  CLOUDY    69  67  94 NE12G18   29.65F
LEESBURG*      RAIN      66  66 100 NE7G18    29.72S
MANASSAS*      HVY RAIN  70  68  93 N9        29.67F FOG
GAITHERSBURG*  LGT RAIN  66  64  93 VRB6      29.70F

$$

MDZ006>007-011-014-290700-
BALTIMORE METRO

CITY           SKY/WX    TMP DP  RH WIND       PRES   REMARKS
BWI AIRPORT    HVY RAIN  69  69 100 NE13      29.70S FOG
MD SCIENCE CTR   N/A     71  70  96 MISG      29.71R
MARTIN STATE   HVY RAIN  70  70 100 NE5       29.66F
ANNAPOLIS      HVY RAIN  74  74 100 N12       29.65F FOG
FORT MEADE*    CLOUDY    68  66  94 NE10G18   29.71F

$$

MDZ012-015-019>023-290700-
MARYLAND EASTERN SHORE

CITY           SKY/WX    TMP DP  RH WIND       PRES   REMARKS
OCEAN CITY     HVY RAIN  73  72  96 S5        29.66F FOG
SALISBURY      LGT RAIN  71  71 100 CALM      29.65S
BAY BRIDGE AP* HVY RAIN  72  70  94 NE6       29.67S FOG
CAMBRIDGE*     CLOUDY    72  70  94 SE8       29.63F
EASTON*        HVY RAIN  72  70  94 E9        29.67S

$$

MDZ017>025-290700-
SOUTHERN MARYLAND

CITY           SKY/WX    TMP DP  RH WIND       PRES   REMARKS
PATUXENT RIVER LGT RAIN  73  73 100 S9        29.62F
ST INIGOES     LGT RAIN  75  72  90 S7        29.62F
LEONARDTOWN*   CLOUDY    72  70  94 S3        29.64F

$$

MDZ003>005-290700-
NORTH CENTRAL MARYLAND

CITY           SKY/WX    TMP DP  RH WIND       PRES   REMARKS
FREDERICK*     LGT RAIN  68  68 100 N12       29.74F
HAGERSTOWN APT PTCLDY    68  66  93 NE7       29.74S
WESTMINSTER*   HVY RAIN  66  66 100 N8        29.75R

$$

MDZ501>502-290700-
WESTERN MARYLAND

CITY           SKY/WX    TMP DP  RH WIND       PRES   REMARKS
OAKLAND*       CLOUDY    59  59 100 N5        29.82S
CUMBERLAND*    CLOUDY    68  64  88 N5        29.81S

$$

VAZ025>031-290700-
SHENANDOAH VALLEY

CITY           SKY/WX    TMP DP  RH WIND       PRES   REMARKS
WINCHESTER*    CLOUDY    66  64  94 N7          N/A
FRONT ROYAL*   CLOUDY    68  68 100 N6        29.71S
LURAY*         RAIN      68  68 100 N9        29.71F
NEW MARKET*    CLOUDY    67  65  95 N9G18     29.72F
STAUNTON*      CLOUDY    64  64  97 N6        29.75S
WAYNESBORO*    CLOUDY    64  64 100 NW9       29.73S

$$

WVZ021-048>050-054>055-290700-
EASTERN WEST VIRGINIA PANHANDLE

CITY           SKY/WX    TMP DP  RH WIND       PRES   REMARKS
MARTINSBURG    CLOUDY    67  65  93 N9        29.72F FOG
PETERSBURG*    CLOUDY    68  67  95 CALM      29.77S

$$

VAZ036>039-050-290700-
CENTRAL FOOTHILLS

CITY           SKY/WX    TMP DP  RH WIND       PRES   REMARKS
CHARLOTTESVILL CLOUDY    71  68  90 N6        29.67S
CULPEPER*      LGT RAIN  70  69  97 N6        29.68S
ORANGE*        RAIN      70  70 100 N14G23    29.66S
GORDONSVILLE*  CLOUDY    71  70  98 N6        29.66S
WARRENTON*     LGT RAIN  70  66  88 NE9       29.67S

$$

VAZ055>057-290700-
NORTH AND CENTRAL PIEDMONT

CITY           SKY/WX    TMP DP  RH WIND       PRES   REMARKS
FREDERICKSBRG* DRIZZLE   73  73 100 W3        29.63F
STAFFORD*      RAIN      70  70 100 NW7       29.69R

$$

NCZ024-NYZ072-PAZ021-071-VAZ022-071-290700-
OTHER REGIONAL OBSERVATIONS

CITY           SKY/WX    TMP DP  RH WIND       PRES   REMARKS
NEW YORK CITY  CLOUDY    75  58  55 NE9G18    29.80F
PHILADELPHIA   LGT RAIN  73  70  90 NE10      29.74R
PITTSBURGH     RAIN      64  63  96 NE9       29.87S FOG
ROANOKE        CLOUDY    71  70  96 CALM      29.71S
RICHMOND       LGT RAIN  72  71  97 SW6       29.66S
RALEIGH        CLOUDY    76  74  93 SW5       29.67F

$$

ANZ530>537-290700-
MARINE OBSERVATIONS

STATION/POSITION TIME  TEMP    WIND        PRES
                       AIR SEA DIR/SP/G
                 (UTC) (F)     (DEG/KT/KT) (MB)
THOMAS PT LIGHT  0600   72 80   40/ 26/ 28   N/A
BALT KEY BRIDGE  0548   71      50/ 15/ 19 1005.3R
COVE POINT       0548   75     200/ 14/ 17 1003.7F
LEWISETTA        0548   74 81  230/  8/  9 1003.4S
SOLOMONS ISLAND  0548   75 83  190/ 11/ 13   N/A
PINEY POINT      0542          230/  9/ 10   N/A

$$





USA.gov is the U.S. government's official web portal to all federal, state and local government web resources and services.